National Weather Service Hourly Weather Roundup
NOAA NWS Hourly Roundups by Site
NOAA NWS Hourly Roundups by Site
Regional Weather Roundup for Sacramento, CA

To Select Another Site Choose from List

Select Site:  

000
ASUS46 KSTO 240215
RWRCA

NORTHERN AND CENTRAL CA REGIONAL WEATHER ROUNDUP
NATIONAL WEATHER SERVICE SACRAMENTO CA
700 PM PDT TUE JUL 23 2019

NOTE: FAIR INDICATES FEW OR NO CLOUDS BELOW 12,000 FEET WITH NO
SIGNIFICANT WEATHER AND/OR OBSTRUCTIONS TO VISIBILITY.

CAZ001-003-240300-
NORTHWEST AREA

CITY           SKY/WX    TMP DP  RH WIND       PRES   REMARKS
CRESCENT CITY  SUNNY     59  55  87 NW13G23   30.12F
UKIAH          SUNNY     87  33  14 N6        29.97S
$$

CAZ006-505>513-240300-
BAY AREA

CITY           SKY/WX    TMP DP  RH WIND       PRES   REMARKS
SANTA ROSA     SUNNY     76  55  48 S8        29.96R
SAN RAFAEL     N/A       MM  MM  MM MISG
NAPA           SUNNY     73  57  57 S10       29.96S
CONCORD        SUNNY     85  43  22 W9        29.95S
OAKLAND CITY   N/A       69  MM  MM MISG
OAKLAND        MOSUNNY   67  56  67 W13       30.01S
SAN FRAN CITY  N/A       62  MM  74 MISG
SAN FRAN ARPT  MOSUNNY   65  54  67 NW12      30.00S
LIVERMORE      SUNNY     79  45  29 W13       29.97R
HAYWARD        SUNNY     66  55  67 W7        30.01R
REDWOOD CITY   N/A       76  MM  42 MISG
MOFFETT ARPT   SUNNY     73  59  61 N13       30.01R
SAN JOSE ARPT  MOSUNNY   74  54  49 NW13      30.00R
$$
CAZ034-037-514>518-240300-
CENTRAL COAST

CITY           SKY/WX    TMP DP  RH WIND       PRES   REMARKS
WATSONVILLE    SUNNY     63  54  72 S10       30.01S
SALINAS        SUNNY     64  54  69 N13       30.01F
MONTEREY       SUNNY     66  52  60 NW6       30.03F
SAN LUIS OBISP SUNNY     68  55  63 NW8       29.98R
SANTA MARIA    MOSUNNY   65  57  75 NW8       30.00R
$$
CAZ015-016-240300-
NORTHERN SACRAMENTO VALLEY

CITY           SKY/WX    TMP DP  RH WIND       PRES   REMARKS
REDDING        MOSUNNY   96  53  23 S13       29.86S HX  93
RED BLUFF      SUNNY     96  56  26 S15       29.88S HX  94
OROVILLE       SUNNY     97  40  14 SE10      29.90S HX  92
$$
CAZ016>018-240300-
SOUTHERN SACRAMENTO VALLEY

CITY           SKY/WX    TMP DP  RH WIND       PRES   REMARKS
AUBURN         SUNNY     90  43  19 S8        30.01S
LINCOLN        FAIR      95  37  13 S10       29.90S HX  90
MARYSVILLE     SUNNY     96  46  18 S15       29.89S HX  92
PLACERVILLE    FAIR      84  37  18 SW3       30.10S
SAC INTL ARPT  MOSUNNY   89  56  32 S15       29.89S
MATHER AIRPORT SUNNY     93  37  14 SW12      29.91S
DOWNTOWN SAC   N/A       89  MM  MM MISG
SAC EXEC ARPT  SUNNY     86  53  32 SW13      29.91S
VACAVILLE      SUNNY     90  49  24 SW9       29.92S
$$
CAZ019>021-240300-
SAN JOAQUIN VALLEY

CITY           SKY/WX    TMP DP  RH WIND       PRES   REMARKS
STOCKTON       SUNNY     93  48  21 W13       29.92R
MODESTO        SUNNY     94  47  20 NW16      29.91R HX  90
MERCED         MOSUNNY   94  58  29 NW10      29.90R HX  93
LEMOORE        MOSUNNY   98  59  27 NE5       29.89S HX  98
FRESNO         MOSUNNY  101  56  22 NW6       29.90R HX 100
HANFORD        SUNNY     96  69  41 NE5       29.89S HX 102
PORTERVILLE      N/A     97  65  34 NW8       29.90S HX  99
BAKERSFIELD    SUNNY     96  61  31 W9        29.89R HX  96
$$
CAZ011-012-071-240300-
NORTHERN MOUNTAINS

CITY           SKY/WX    TMP DP  RH WIND       PRES   REMARKS
YREKA          SUNNY     86  44  23 N18       30.02R
MOUNT SHASTA   SUNNY     81  44  27 CALM      30.06S
ALTURAS        SUNNY     84  38  19 W15       30.10R
$$
CAZ011-012-071-240300-
SIERRA NEVADA MTNS

CITY           SKY/WX    TMP DP  RH WIND       PRES   REMARKS
BLUE CANYON    SUNNY     73  48  41 VRB5      30.28R
TRUCKEE        MOSUNNY   75  45  33 S15       30.29R
TAHOE VLY ARPT PTSUNNY   73  47  39 S9G17     30.30R
MAMMOTH LAKES  FAIR      66  47  50 CALM      30.40S
$$



 

View Past Reports for Sacramento, CA.

Products Courtesy of NOAA-NWS
NWS Information Parsing Script by Ken True at Saratoga Weather - Script by SE Lincoln Weather.

powered by Cumulus v1.9.3 (1059)
Ambient Weather VWS v14.00
Top Contact Website Map Copyright © 2007 - 2019 Foresthillweather.com Never base important decisions on this or any weather information obtained from the Internet